Voltar ao catálogo

STARLINK-30149

AtivoComunicaçõesVLEO
NORAD 57516·PAYLOAD·🇺🇸 United States

Lançado Aug 7, 2023 de Cape Canaveral Space Force Station

Loading…

Próximas Passagens (próximas 24 horas)

TLE

AtualizadoSource: CelesTrak SupGP

Época: Sep 15, 2026, 01:41 UTC

1 57516C 23113X   26258.07062500 -.00091186  00000+0 -33028-2 0  2589
2 57516  43.0041  26.4134 0002195 271.8222 321.7486 15.27621491    19

Acompanhe STARLINK-30149 em tempo real com AllMySat

Download on the App Store